Prescott, AZ

6:00 AM MST on April 22, 2018 (GMT -0700)
Love

Weather History for KPRC - February, 2013

Change the Weather History Date:

Sunday, February 3, 2013

  Actual Average Record
Temperature  
Mean Temperature 44 °F 40 °F  
Max Temperature 50 °F 53 °F 70 °F (1963)
Min Temperature 35 °F 27 °F 3 °F (2011)
Degree Days  
Heating Degree Days 22    
Month to date heating degree days  
Since 1 July heating degree days  
Cooling Degree Days 0    
Month to date cooling degree days  
Year to date cooling degree days  
Moisture  
Dew Point 35 °F    
Average Humidity 70    
Maximum Humidity 100    
Minimum Humidity 53    
Precipitation  
Precipitation 0.03 in 0.04 in 0.70 in (2008)
Month to date precipitation 0.12  
Year to date precipitation 1.24  
Sea Level Pressure  
Sea Level Pressure 30.05 in    
Wind  
Wind Speed 1 mph (South)    
Max Wind Speed 6 mph    
Max Gust Speed -    
Visibility 10 miles    
Events Rain    
T = Trace of Precipitation, MM = Missing Value Source: NWS Daily Summary

Daily Weather History Graph

Daily Weather History Graph

Search for Another Location

Airport or City:

Astronomy

Feb. 03, 2013 Rise Set
Actual Time 7:26 AM MST 6:01 PM MST
Civil Twilight 6:59 AM MST 6:27 PM MST
Nautical Twilight 6:29 AM MST 6:57 PM MST
Astronomical Twilight 6:00 AM MST 7:27 PM MST
Moon 12:57 AM MST (2/3) 11:43 AM MST (2/3)
Length of Visible Light 11h 28m
Length of Day
10h 35m
Waning Gibbous, 48% of the Moon is Illuminated
Feb 3
Waning Gibbous
Feb 10
New
Feb 17
First Quarter
Feb 25
Full
Mar 4
Last Quarter

Hourly Weather History & Observations

Time (MST) Temp. Windchill Dew Point Humidity Pressure Visibility Wind Dir Wind Speed Gust Speed Precip Events Conditions
12:53 AM 43.0 °F - 27.0 °F 53% 30.14 in 10.0 mi Calm Calm - N/A   Clear
1:53 AM 42.1 °F - 28.0 °F 58% 30.12 in 10.0 mi Calm Calm - N/A   Clear
2:53 AM 43.0 °F - 28.0 °F 56% 30.09 in 10.0 mi Calm Calm - N/A   Partly Cloudy
3:53 AM 42.1 °F - 28.9 °F 60% 30.07 in 10.0 mi Calm Calm - N/A   Partly Cloudy
4:53 AM 41.0 °F - 30.0 °F 65% 30.05 in 10.0 mi Calm Calm - N/A   Mostly Cloudy
5:53 AM 41.0 °F - 30.9 °F 67% 30.05 in 10.0 mi Calm Calm - N/A   Overcast
6:53 AM 41.0 °F 39.0 °F 30.0 °F 65% 30.07 in 10.0 mi WNW 3.5 mph - N/A   Overcast
7:53 AM 41.0 °F - 30.9 °F 67% 30.10 in 10.0 mi Calm Calm - N/A   Overcast
8:53 AM 42.1 °F 38.4 °F 32.0 °F 67% 30.11 in 10.0 mi SE 5.8 mph - N/A   Overcast
9:53 AM 45.0 °F 43.5 °F 32.0 °F 60% 30.11 in 10.0 mi SSE 3.5 mph - N/A   Overcast
10:53 AM 48.9 °F - 33.1 °F 54% 30.10 in 10.0 mi ENE 3.5 mph - N/A   Overcast
11:53 AM 50.0 °F - 34.0 °F 54% 30.06 in 10.0 mi South 4.6 mph - 0.00 in Rain Light Rain
12:53 PM 48.9 °F - 37.9 °F 66% 30.04 in 10.0 mi North 5.8 mph - 0.01 in Rain Light Rain
1:53 PM 48.9 °F - 37.9 °F 66% 30.00 in 10.0 mi NNW 5.8 mph - 0.00 in Rain Light Rain
2:53 PM 48.9 °F - 37.9 °F 66% 29.98 in 10.0 mi NNE 3.5 mph - 0.00 in   Overcast
3:53 PM 48.9 °F - 39.0 °F 69% 29.97 in 10.0 mi Calm Calm - 0.01 in   Overcast
4:53 PM 48.0 °F - 39.0 °F 71% 29.99 in 4.0 mi Calm Calm - 0.01 in Rain Rain
5:53 PM 46.9 °F - 39.9 °F 77% 30.01 in 10.0 mi Calm Calm - 0.00 in Rain Light Rain
6:53 PM 46.0 °F - 41.0 °F 83% 30.01 in 10.0 mi Calm Calm - 0.00 in Rain Light Rain
7:53 PM 45.0 °F - 41.0 °F 86% 30.02 in 10.0 mi Calm Calm - 0.00 in   Overcast
8:53 PM 43.0 °F - 41.0 °F 93% 30.02 in 10.0 mi Calm Calm - N/A   Mostly Cloudy
9:53 PM 39.9 °F - 37.9 °F 93% 30.02 in 9.0 mi Calm Calm - N/A   Partly Cloudy
10:53 PM 37.0 °F 33.3 °F 36.0 °F 96% 30.02 in 9.0 mi SW 4.6 mph - N/A   Clear
11:53 PM 35.1 °F 31.0 °F 35.1 °F 100% 30.01 in 10.0 mi South 4.6 mph - N/A   Clear